User: anonymous   Login
Location: Gdynia
(54.4973°N, 18.5618°E)
Time: 02:19:52
(UTC+02:00)
Language:

Nimbus 2 - Orbit

View from above orbital plane
View from above orbital plane
View from above satellite
View from above satellite

Ground track
Ground track

The orbit data is extracted from the following two-line orbital elements,

1  2173U 66040A   19108.83379722 -.00000036 +00000-0 +21593-4 0  9993
2  2173 100.3637 226.7203 0054692 309.4775 160.5904 13.33551552574877
Epoch (UTC): 18 April 2019 20:00:40
Eccentricity: 0.0054692
inclination: 100.3637°
perigee height: 1092 km
apogee height: 1174 km
right ascension of ascending node: 226.7203°
argument of perigee: 309.4775°
revolutions per day: 13.33551552
mean anomaly at epoch: 160.5904°
orbit number at epoch: 57487

The dashed part of the orbit path shows where the satellite is in the earth's shadow,  

DLR